Regional Weather Roundup
Issued by NWS Portland, ME

Home | Current Version | Previous Version | Text Only | Print | Product List | Glossary On
Versions: 1 2 3 4 5 6 7 8 9 10 11 12 13 14 15 16 17 18 19 20 21 22 23 24 25 26 27 28 29 30 31 32 33 34 35 36 37 38 39 40 41 42 43 44 45 46 47 48 49 50
000
ASUS41 KGYX 281210
RWRGYX
WEATHER ROUNDUP FOR MAINE AND NEW HAMPSHIRE
NATIONAL WEATHER SERVICE GRAY ME
700 AM EST WED JAN 28 2015

MEZ002-005-006-010-012-015-018-020-021-024-026-027-029-281300-
MAINE

CITY           SKY/WX    TMP DP  RH WIND       PRES   REMARKS
PORTLAND       CLOUDY    17   6  62 NW13      29.79R WCI   4
6HR MIN TEMP:  15; 6HR MAX TEMP:  17; 6HR PCP:  0.07;

SANFORD        CLOUDY    16   5  62 NW8       29.80R
BAR HARBOR     CLOUDY    14  14 100 N9G26     29.69R VSB 3/4
WISCASSET      CLOUDY    15   6  67 VRB7      29.77R
6HR MIN TEMP:  13; 6HR MAX TEMP:  15; 6HR PCP:  0.04;

ROCKLAND       CLOUDY    16   9  73 N10G24    29.71R WCI   3
FRYEBURG       CLOUDY    14   2  58 NW6       29.81R
6HR MIN TEMP:  13; 6HR MAX TEMP:  15; 6HR PCP:  0.01;

LEWISTONAUBURN CLOUDY    14   7  73 NW8       29.77R
AUGUSTA        CLOUDY    12   5  73 N21G26    29.77R WCI  -7
6HR MIN TEMP:  10; 6HR MAX TEMP:  13; 6HR PCP: TRACE;

WATERVILLE     CLOUDY    12   9  85 N15G25    29.74R WCI  -4
BANGOR         FLURRIES  15   8  73 N18G30    29.75R WCI  -2
6HR MIN TEMP:  12; 6HR MAX TEMP:  15; 6HR PCP: TRACE;

GREENVILLE       N/A      5   1  83 N13G26    29.71R WCI -12
6HR MIN TEMP:   5; 6HR MAX TEMP:   6; 6HR PCP:  0.10;

MILLINOCKET    LGT SNOW  13   6  74 N15G25    29.79R WCI  -3
6HR MIN TEMP:  12; 6HR MAX TEMP:  13; 6HR PCP: TRACE;

HOULTON        MIX PCPN  11   6  81 N17G28    29.75R WCI  -6
6HR MIN TEMP:   9; 6HR MAX TEMP:  11; 6HR PCP: TRACE;

PRESQUE ISLE   CLOUDY    10   3  72 N13       29.82R VSB 1   WCI  -5
6HR MIN TEMP:  10; 6HR MAX TEMP:  10;

FRENCHVILLE    LGT SNOW   8   3  80 N17G24    29.80R VSB 1   WCI -10
6HR MIN TEMP:   8; 6HR MAX TEMP:   8; 6HR PCP: TRACE;

CARIBOU        LGT SNOW  10   5  80 N13G23    29.81R WCI  -5
6HR MIN TEMP:  10; 6HR MAX TEMP:  11; 6HR PCP:  0.08;

$$

NHZ002-005-008-009-011-012-014-281300-
NEW HAMPSHIRE

CITY           SKY/WX    TMP DP  RH WIND       PRES   REMARKS
PORTSMOUTH     CLOUDY    14   4  67 W9        29.81R
ROCHESTER      CLOUDY    14   4  64 NW10      29.80R WCI   1
6HR MIN TEMP:  11; 6HR MAX TEMP:  14; 6HR PCP:  0.01;

NASHUA           N/A     12   1  61 NW9       29.87R
MANCHESTER     CLOUDY    12   2  64 NW9G18    29.84R
6HR MIN TEMP:  12; 6HR MAX TEMP:  13; 6HR PCP: TRACE;

CONCORD        CLOUDY    12   2  64 NW12      29.85R WCI  -2
6HR MIN TEMP:  11; 6HR MAX TEMP:  13; 6HR PCP:  0.01;

LACONIA        CLOUDY    10   0  61 W8        29.80R
PLYMOUTH       CLOUDY    10   4  77 W10G18    29.87R WCI  -4
BERLIN         CLOUDY     7  -2  66 NW7       29.84R
6HR MIN TEMP:   7; 6HR MAX TEMP:   8; 6HR PCP: TRACE;

WHITEFIELD     CLOUDY     7  -1  70 N13G18    29.87R WCI  -9
6HR MIN TEMP:   6; 6HR MAX TEMP:   7; 6HR PCP: TRACE;

JAFFREY        CLOUDY     8  -2  63 N8        29.82R
6HR MIN TEMP:   7; 6HR MAX TEMP:   9; 6HR PCP: TRACE;

KEENE          CLOUDY    10   0  61 N10G21    29.89R WCI  -3
LEBANON        CLOUDY     9  -1  64 N12G17    29.92R WCI  -6
6HR MIN TEMP:   9; 6HR MAX TEMP:  11; 6HR PCP: TRACE;

MT WASHINGTON  NOT AVBL
$$

VTZ005-007-008-281300-
VERMONT

CITY           SKY/WX    TMP DP  RH WIND       PRES   REMARKS
ST JOHNSBURY     N/A      7  -1  70 MISG      29.93R
MONTPELIER     CLOUDY     4  -2  76 N8        29.95R
BURLINGTON     MOCLDY     8  -1  66 N10       30.07R WCI  -6
$$

MAZ007-012-024-CTZ003-RIZ002-NYZ038-NYZ072-281300-
SOUTHERN NEW ENGLAND AND NY

CITY           SKY/WX    TMP DP  RH WIND       PRES   REMARKS
BOSTON         CLOUDY    14   4  64 NW14      29.86R WCI  -1
WORCESTER      CLOUDY     8   0  69 NW21G29   29.79R WCI -12
NANTUCKET      FLURRIES  19  13  77 NW18G25   29.80R WCI   4
PROVIDENCE     MOCLDY    13   2  61 NW8       29.87R
HARTFORD       PTCLDY    13   0  56 N8        29.93R
ALBANY         FLURRIES  11  -2  56 N10       30.05R WCI  -3
NEW YORK CITY  PTCLDY    18   2  49 NW15      29.98R WCI   4
$$

ANZ081-ANZ082-ANZ150-NHZ014-MEZ023>029-281300-
COASTAL MARINE OBSERVATIONS

STATION/POSITION TIME  TEMP    WIND        PRES    WAVE
                       AIR SEA DIR/SP/G            HT/PER
                 (UTC) (F)     (DEG/KT/KT) (MB)    (FT/S)
MOUNT DESERT ROC 1200   20                 1002.5R
MATINICUS ROCK   1200          360/ 35/ 40 1004.6R
PORTLAND WX BUOY 1150   20 40  350/ 21/ 25 1007.8R  10/12
WELLS            1100   17 34  330/ 10/ 14 1007.6R
ISLE OF SHOALS   1200   17     320/ 18/ 23 1008.9R
JEFFREYS LEDGE   1121      44                N/A    13/10
CASHES LEDGE BUO 1150   23     350/ 25     1004.6R
$$

.............KEY..............
   WCI - WIND CHILL
   TC  - TEMPERATURE IN CELSIUS
   VSB - VISIBILITY IN MILES
   HX  - HEAT INDEX
   FAIR- INDICATES FEW OR NO CLOUDS BELOW 12,000 FT, WITH NO
         SIGNIFICANT WEATHER AND/OR OBSTRUCTIONS TO VISIBILITY.




USA.gov is the U.S. government's official web portal to all federal, state and local government web resources and services.